KISM 160356Z AUTO 18003KT 10SM CLR 24/23 A3002 RMK AO2 SLP166 T02440233 $

KISSIMMEE GATEWAY AIRPORT

ISM Airport Diagram
Airport Information
Airport Runways
  • Runway 15/33

  • Runway 06/26

FBOs
  • Signature Flight Support

  • Odyssey Aviation

Fuel
  • Self-Serve (100LL)

  • Full Service (100LL, Jet-A)

AIRCRAFT AT KISM

N46299

Kissimmee Gateway (KISM)

  • Cessna 172M

  • IFR Equipped

  • Garmin GNX 375

  • ADS-B In/Out

$170/hr

Overnight Minimums

2 hours per day

N670MA

Kissimmee Gateway (KISM)

  • Cessna 172R

  • IFR Equipped

  • Garmin GNX 375

  • ADS-B In/Out

$170/hr

Overnight Minimums

4 hours per day